Weather History for Nuiqsut, AK

Change the Weather History Date:

Monday, December 26, 2011

  Actual Average (PAKU) Record (PAKU)
Temperature  
Mean Temperature -27 °F -  
Max Temperature -22 °F -1 °F 24 °F (1983)
Min Temperature -32 °F -10 °F -40 °F (2010)
Degree Days  
Heating Degree Days 92    
Moisture  
Dew Point -31 °F    
Average Humidity 78    
Maximum Humidity 83    
Minimum Humidity 73    
Precipitation  
Precipitation 0.00 in - - ()
Sea Level Pressure  
Sea Level Pressure 30.08 in    
Wind  
Wind Speed 3 mph (ENE)    
Max Wind Speed 8 mph    
Max Gust Speed -    
Visibility 6 miles    
Events Snow    
Averages and records for this station are not official NWS values.
T = Trace of Precipitation, MM = Missing Value Source: NWS Daily Summary

Daily Weather History Graph

Daily Weather History Graph

Search for Another Location

Airport:

Trip Planner

Search our weather history database for the weather conditions in past years. The results will help you decide how hot, cold, wet, or windy it might be!

Date:

Astronomy

Dec. 31, 1969 Rise Set
Actual Time Sun does not rise Sun does not rise
Civil Twilight 11:03 AM AKST 3:05 PM AKST
Nautical Twilight 9:12 AM AKST 4:56 PM AKST
Astronomical Twilight 7:52 AM AKST 6:17 PM AKST
Moon 12:30 PM AKST (12/26) 5:55 PM AKST (12/26)
Length of Visible Light 4h 02m
Length of Day
0h 00m
Waxing Crescent, 6% of the Moon is Illuminated
Dec 26
Waxing Crescent
Dec 31
First Quarter
Jan 8
Full
Jan 16
Last Quarter
Jan 22
New

Hourly Weather History & Observations

Time (AKST) Temp. Windchill Dew Point Humidity Pressure Visibility Wind Dir Wind Speed Gust Speed Precip Events Conditions
12:24 AM -25.6 °F -39.8 °F -29.2 °F 83% 30.19 in 8.0 mi NNE 4.6 mph - N/A   Scattered Clouds
12:53 AM -25.1 °F -39.1 °F -29.9 °F 78% 30.19 in 10.0 mi NNE 4.6 mph - N/A   Partly Cloudy
1:40 AM -23.8 °F -35.0 °F -27.4 °F 83% 30.19 in 6.0 mi NE 3.5 mph - N/A   Overcast
1:53 AM -24.0 °F -35.2 °F -29.0 °F 77% 30.20 in 5.0 mi NNE 3.5 mph - N/A   Haze
2:16 AM -23.8 °F - -27.4 °F 83% 30.19 in 9.0 mi Calm Calm - N/A   Overcast
3:53 AM -24.0 °F - -29.0 °F 77% 30.20 in 4.0 mi Calm Calm - N/A   Haze
4:53 AM -25.1 °F - -29.9 °F 78% 30.19 in 7.0 mi Calm Calm - N/A   Overcast
5:53 AM -26.0 °F - -29.9 °F 81% 30.18 in 9.0 mi Calm Calm - N/A   Overcast
6:28 AM -27.4 °F - -32.8 °F 75% 30.18 in 6.0 mi Calm Calm - N/A   Haze
6:53 AM -27.9 °F - -33.0 °F 77% 30.18 in 4.0 mi Calm Calm - N/A   Haze
7:46 AM -29.2 °F - -34.6 °F 75% 30.17 in 8.0 mi Calm Calm - N/A   Overcast
7:53 AM -27.9 °F - -34.1 °F 73% 30.17 in 9.0 mi Calm Calm - N/A   Overcast
8:53 AM -27.9 °F - -32.1 °F 81% 30.17 in 4.0 mi Calm Calm - N/A   Overcast
9:01 AM -27.4 °F - -32.8 °F 75% 30.16 in 5.0 mi Calm Calm - N/A   Haze
9:21 AM -27.4 °F - -31.0 °F 83% 30.16 in 10.0 mi Calm Calm - N/A   Overcast
9:53 AM -27.9 °F - -34.1 °F 73% 30.16 in 10.0 mi Calm Calm - N/A   Overcast
10:53 AM -27.9 °F - -33.0 °F 77% 30.15 in 9.0 mi Calm Calm - N/A   Overcast
11:53 AM -29.9 °F -42.0 °F - N/A% 30.13 in 3.0 mi SW 3.5 mph - N/A   Overcast
12:37 PM -29.2 °F -41.2 °F - N/A% 30.12 in 7.0 mi SW 3.5 mph - N/A   Overcast
12:53 PM -29.9 °F - - N/A% 30.12 in 4.0 mi Calm Calm - 0.00 in   Overcast
1:27 PM -29.2 °F - -34.6 °F 75% 30.11 in 5.0 mi Calm Calm - 0.00 in   Haze
1:53 PM -29.0 °F -41.0 °F -34.1 °F 77% 30.10 in 5.0 mi SSW 3.5 mph - 0.00 in   Haze
2:53 PM -27.9 °F -39.8 °F -33.0 °F 77% 30.09 in 4.0 mi South 3.5 mph - N/A   Haze
3:53 PM -29.0 °F -43.8 °F -35.0 °F 73% 30.06 in 6.0 mi South 4.6 mph - N/A   Haze
4:36 PM -29.2 °F - -34.6 °F 75% 30.03 in 7.0 mi Calm Calm - N/A   Overcast
4:53 PM -29.9 °F - - N/A% 30.04 in 7.0 mi Calm Calm - N/A   Overcast
5:53 PM -32.1 °F -44.5 °F - N/A% 30.03 in 9.0 mi SSE 3.5 mph - N/A   Overcast
6:01 PM -32.8 °F -45.3 °F - N/A% 30.02 in 9.0 mi South 3.5 mph - N/A   Overcast
6:10 PM -32.8 °F -45.3 °F - N/A% 30.01 in 8.0 mi South 3.5 mph - N/A   Overcast
6:53 PM -29.0 °F - -35.0 °F 73% 30.01 in 7.0 mi Calm Calm - N/A   Overcast
7:53 PM -27.9 °F -39.8 °F -33.0 °F 77% 29.99 in 9.0 mi North 3.5 mph - N/A   Mostly Cloudy
8:53 PM -26.0 °F -40.2 °F -31.0 °F 77% 29.98 in 5.0 mi NNE 4.6 mph - N/A   Haze
9:53 PM -23.1 °F -42.3 °F -27.9 °F 78% 29.96 in 2.5 mi NE 8.1 mph - 0.00 in Snow Light Snow
10:11 PM -23.8 °F -39.8 °F -27.4 °F 83% 29.95 in 1.8 mi NE 5.8 mph - 0.00 in Snow Light Snow
10:14 PM -23.8 °F -39.8 °F -27.4 °F 83% 29.95 in 2.0 mi NE 5.8 mph - 0.00 in Snow Light Snow
10:21 PM -23.8 °F -41.6 °F -27.4 °F 83% 29.95 in 1.5 mi NE 6.9 mph - 0.00 in Snow Light Snow
10:29 PM -22.0 °F -39.4 °F -27.4 °F 76% 29.94 in 2.0 mi NE 6.9 mph - 0.00 in Snow Light Snow
10:39 PM -22.0 °F -37.7 °F -27.4 °F 76% 29.94 in 5.0 mi ENE 5.8 mph - 0.00 in Snow Light Snow
10:53 PM -22.0 °F -37.7 °F -27.0 °F 77% 29.95 in 2.5 mi ENE 5.8 mph - 0.00 in Snow Light Snow
11:11 PM -22.0 °F -39.4 °F -27.4 °F 76% 29.94 in 1.8 mi ENE 6.9 mph - 0.00 in Snow Light Snow
11:27 PM -22.0 °F -39.4 °F -27.4 °F 76% 29.93 in 2.0 mi NE 6.9 mph - 0.00 in Snow Light Snow
11:36 PM -22.0 °F -39.4 °F -27.4 °F 76% 29.93 in 7.0 mi ENE 6.9 mph - 0.00 in Snow Light Snow
11:53 PM -22.0 °F -37.7 °F -27.0 °F 77% 29.93 in 3.0 mi NE 5.8 mph - 0.00 in Snow Light Snow